This is the latest recevied weather packets stored in our database for station/object DL3NBY. If no packets are shown the sender has not sent any weather packets the latest 10 day(s).
| Time | Temp. | Humidity | Pressure | Rain* | Wind** | Luminosity | Snow |
|---|---|---|---|---|---|---|---|
| 1777808460 | 25° C | 36% | 1012.8 hPa | 0 mm | - | - | - |
| 1777806651 | 24.44° C | 39% | 1013.2 hPa | 0 mm | - | - | - |
| 1777803032 | 22.78° C | 45% | 1013.7 hPa | 0 mm | - | - | - |
| 1777801828 | 22.22° C | 46% | 1014.1 hPa | 0 mm | - | - | - |
| 1777798870 | 18.89° C | 59% | 1014.6 hPa | 0 mm | - | - | - |
| 1777793441 | 15° C | 76% | 1014.5 hPa | 0 mm | - | - | - |
| 1777792837 | 14.44° C | 75% | 1014.6 hPa | 0 mm | - | - | - |
| 1777792234 | 13.33° C | 78% | 1014.6 hPa | 0 mm | - | - | - |
| 1777791630 | 13.33° C | 81% | 1014.5 hPa | 0 mm | - | - | - |
| 1777786864 | 9.44° C | 90% | 1014.6 hPa | 0 mm | - | - | - |
| 1777785677 | 7.78° C | 97% | 1014.6 hPa | 0 mm | - | - | - |
| 1777781438 | - | 1% | 1014.2 hPa | 0 mm | - | - | - |
| 1777775464 | - | 1% | 1014.6 hPa | 0 mm | - | - | - |
| 1777773655 | - | 1% | 1014.7 hPa | 0 mm | - | - | - |
| 1777767020 | - | 1% | 1015.2 hPa | 0 mm | - | - | - |
| 1777765271 | - | 1% | 1015.2 hPa | 0 mm | - | - | - |
| 1777764065 | - | 1% | 1015.2 hPa | 0 mm | - | - | - |
| 1777762879 | 8.33° C | 49% | 1015.3 hPa | 0 mm | - | - | - |
| 1777762255 | 12.78° C | 65% | 1015.4 hPa | 0 mm | - | - | - |
| 1777758637 | - | 1% | 1015.5 hPa | 0 mm | - | - | - |
| 1777752664 | - | 1% | 1015.8 hPa | 0 mm | - | - | - |
| 1777751458 | - | 1% | 1015.8 hPa | 0 mm | - | - | - |
| 1777749648 | - | 1% | 1015.6 hPa | 0 mm | - | - | - |
| 1777744852 | 17.22° C | 69% | 1015.4 hPa | 0 mm | - | - | - |
| 1777742460 | 22.78° C | 62% | 1015.4 hPa | 0 mm | - | - | - |
* Rain latest hour (hover to see other rain measurements)
** Current wind speed in m/s (hover to see current wind gust speed)